Redding, CA

4:34 PM PDT on May 20, 2018 (GMT -0700)
Redding Municipal

Weather History for KRDD - December, 2012

Change the Weather History Date:

Monday, December 24, 2012

  Actual Average Record
Temperature  
Mean Temperature 43 °F -  
Max Temperature 53 °F 54 °F 71 °F (1999)
Min Temperature 32 °F 36 °F 22 °F (1998)
Degree Days  
Heating Degree Days 22    
Cooling Degree Days 0    
Moisture  
Dew Point 33 °F    
Average Humidity 66    
Maximum Humidity 96    
Minimum Humidity 35    
Precipitation  
Precipitation 0.00 in 0.22 in 1.69 in (2008)
Month to date precipitation 8.87 4.75  
Year to date precipitation 35.28 33.10  
Since 1 July precipitation 17.99  
Sea Level Pressure  
Sea Level Pressure 30.14 in    
Wind  
Wind Speed 2 mph (NNW)    
Max Wind Speed 9 mph    
Max Gust Speed 13 mph    
Visibility 9 miles    
Events      
T = Trace of Precipitation, MM = Missing Value Source: NWS Daily Summary

Daily Weather History Graph

Daily Weather History Graph

Search for Another Location

Airport or City:

Astronomy

Dec. 24, 2012 Rise Set
Actual Time 7:30 AM PST 4:47 PM PST
Civil Twilight 6:59 AM PST 5:18 PM PST
Nautical Twilight 6:25 AM PST 5:52 PM PST
Astronomical Twilight 5:52 AM PST 6:26 PM PST
Moon 2:18 PM PST (12/24) 4:13 AM PST (12/24)
Length of Visible Light 10h 18m
Length of Day
9h 16m
Waxing Gibbous, 89% of the Moon is Illuminated
Dec 24
Waxing Gibbous
Dec 28
Full
Jan 4
Last Quarter
Jan 11
New
Jan 18
First Quarter

Hourly Weather History & Observations

Time (PST) Temp. Windchill Dew Point Humidity Pressure Visibility Wind Dir Wind Speed Gust Speed Precip Events Conditions
12:53 AM 39.9 °F - 37.0 °F 89% 29.99 in 10.0 mi Calm Calm - N/A   Clear
1:53 AM 39.0 °F - 36.0 °F 89% 30.01 in 10.0 mi Calm Calm - N/A   Clear
2:53 AM 37.0 °F 33.3 °F 35.1 °F 93% 30.03 in 10.0 mi North 4.6 mph - N/A   Mostly Cloudy
3:53 AM 37.0 °F - 35.1 °F 93% 30.06 in 10.0 mi Calm Calm - N/A   Clear
4:53 AM 33.1 °F - 32.0 °F 96% 30.08 in 10.0 mi Calm Calm - N/A   Clear
5:18 AM 33.8 °F - 30.2 °F 87% 30.09 in 1.8 mi Calm Calm - N/A   Clear
5:24 AM 33.8 °F - 32.0 °F 93% 30.09 in 0.8 mi Calm Calm - N/A   Clear
5:40 AM 33.8 °F - 30.2 °F 87% 30.10 in 1.5 mi Calm Calm - N/A   Clear
5:42 AM 33.8 °F - 30.2 °F 87% 30.10 in 3.0 mi Calm Calm - N/A   Clear
5:53 AM 33.1 °F 28.7 °F 32.0 °F 96% 30.11 in 10.0 mi North 4.6 mph - N/A   Clear
6:53 AM 34.0 °F 29.8 °F 32.0 °F 92% 30.13 in 10.0 mi NW 4.6 mph - N/A   Clear
7:53 AM 34.0 °F - 32.0 °F 92% 30.17 in 10.0 mi Calm Calm - N/A   Clear
8:53 AM 36.0 °F 32.1 °F 33.1 °F 89% 30.20 in 10.0 mi NE 4.6 mph - N/A   Clear
9:53 AM 42.1 °F - 37.0 °F 82% 30.23 in 10.0 mi Calm Calm - N/A   Clear
10:53 AM 46.0 °F 44.8 °F 37.0 °F 71% 30.23 in 10.0 mi NNW 3.5 mph - N/A   Clear
11:53 AM 50.0 °F - 35.1 °F 57% 30.20 in 10.0 mi NNE 4.6 mph - N/A   Clear
12:53 PM 52.0 °F - 33.1 °F 49% 30.19 in 10.0 mi NNW 5.8 mph - N/A   Clear
1:53 PM 53.1 °F - 28.9 °F 40% 30.18 in 10.0 mi NE 6.9 mph - N/A   Clear
2:53 PM 53.1 °F - 27.0 °F 37% 30.17 in 10.0 mi North 4.6 mph - N/A   Clear
3:53 PM 48.9 °F - 28.9 °F 46% 30.17 in 10.0 mi Calm Calm - N/A   Clear
4:53 PM 46.9 °F - 30.0 °F 52% 30.17 in 10.0 mi NNW 3.5 mph - N/A   Clear
5:53 PM 42.1 °F 40.2 °F 32.0 °F 67% 30.18 in 10.0 mi NW 3.5 mph - N/A   Clear
6:53 PM 42.1 °F 40.2 °F 34.0 °F 73% 30.18 in 10.0 mi NNW 3.5 mph - N/A   Clear
7:53 PM 41.0 °F 39.0 °F 34.0 °F 76% 30.17 in 10.0 mi NW 3.5 mph - N/A   Clear
8:53 PM 39.9 °F 37.8 °F 33.1 °F 77% 30.16 in 10.0 mi NW 3.5 mph - N/A   Clear
9:53 PM 37.9 °F 35.5 °F 33.1 °F 83% 30.17 in 10.0 mi NNW 3.5 mph - N/A   Clear
10:53 PM 37.0 °F - 33.1 °F 86% 30.16 in 10.0 mi Calm Calm - N/A   Partly Cloudy
11:53 PM 39.0 °F 36.8 °F 33.1 °F 79% 30.14 in 10.0 mi NNW 3.5 mph - N/A   Clear